Weather History for KOGB - February, 2013

Change the Weather History Date:

Tuesday, February 5, 2013

  Actual Average Record
Temperature  
Mean Temperature 53 °F 48 °F  
Max Temperature 70 °F 59 °F 81 °F (2008)
Min Temperature 35 °F 37 °F 15 °F (1980)
Degree Days  
Heating Degree Days 12 17  
Month to date heating degree days 95 88  
Since 1 July heating degree days 1280 1585  
Cooling Degree Days 0 0  
Month to date cooling degree days 0 0  
Year to date cooling degree days 20 1  
Growing Degree Days 2 (Base 50)    
Moisture  
Dew Point 39 °F    
Average Humidity 67    
Maximum Humidity 92    
Minimum Humidity 35    
Precipitation  
Precipitation 0.00 in 0.10 in 2.84 in (1985)
Month to date precipitation T 0.49  
Year to date precipitation 0.84 4.47  
Sea Level Pressure  
Sea Level Pressure 30.01 in    
Wind  
Wind Speed 5 mph (WSW)    
Max Wind Speed 20 mph    
Max Gust Speed 25 mph    
Visibility 10 miles    
Events      
T = Trace of Precipitation, MM = Missing Value Source: NWS Daily Summary

Daily Weather History Graph

Daily Weather History Graph

Search for Another Location

Airport or City:

Trip Planner

Search our weather history database for the weather conditions in past years. The results will help you decide how hot, cold, wet, or windy it might be!

Date:

Astronomy

Feb. 05, 2013 Rise Set
Actual Time 7:16 AM EST 5:59 PM EST
Civil Twilight 6:50 AM EST 6:24 PM EST
Nautical Twilight 6:20 AM EST 6:54 PM EST
Astronomical Twilight 5:51 AM EST 7:23 PM EST
Moon 2:51 AM EST (2/5) 1:20 PM EST (2/5)
Length of Visible Light 11h 34m
Length of Day
10h 42m
Waning Crescent, 27% of the Moon is Illuminated
Feb 5
Waning Crescent
Feb 10
New
Feb 17
First Quarter
Feb 25
Full
Mar 4
Last Quarter

Hourly Weather History & Observations

Time (EST) Temp. Windchill Dew Point Humidity Pressure Visibility Wind Dir Wind Speed Gust Speed Precip Events Conditions
12:53 AM 41.0 °F - 34.0 °F 76% 30.04 in 10.0 mi Calm Calm - N/A   Clear
1:53 AM 41.0 °F - 34.0 °F 76% 30.02 in 10.0 mi Calm Calm - N/A   Clear
2:53 AM 39.9 °F 37.8 °F 34.0 °F 79% 30.01 in 10.0 mi SSW 3.5 mph - N/A   Clear
3:53 AM 39.0 °F - 34.0 °F 82% 30.00 in 10.0 mi Calm Calm - N/A   Clear
4:53 AM 35.1 °F - 33.1 °F 92% 30.02 in 10.0 mi Calm Calm - N/A   Clear
5:53 AM 35.1 °F - 33.1 °F 92% 30.01 in 9.0 mi Calm Calm - N/A   Clear
6:53 AM 36.0 °F - 33.1 °F 89% 30.03 in 9.0 mi Calm Calm - N/A   Clear
7:53 AM 39.0 °F 34.8 °F 36.0 °F 89% 30.06 in 8.0 mi SSW 5.8 mph - N/A   Clear
8:53 AM 42.1 °F 39.2 °F 37.9 °F 85% 30.06 in 9.0 mi SW 4.6 mph - N/A   Clear
9:53 AM 54.0 °F - 39.9 °F 59% 30.06 in 10.0 mi SW 10.4 mph - N/A   Clear
10:53 AM 60.1 °F - 39.0 °F 46% 30.05 in 10.0 mi WSW 9.2 mph - N/A   Clear
11:53 AM 64.9 °F - 39.9 °F 40% 30.02 in 10.0 mi WSW 15.0 mph 21.9 mph N/A   Clear
12:53 PM 66.9 °F - 41.0 °F 39% 30.00 in 10.0 mi SW 9.2 mph - N/A   Mostly Cloudy
1:53 PM 68.0 °F - 39.9 °F 36% 29.97 in 10.0 mi West 12.7 mph - N/A   Partly Cloudy
2:53 PM 68.0 °F - 41.0 °F 37% 29.96 in 10.0 mi West 16.1 mph 19.6 mph N/A   Partly Cloudy
3:53 PM 66.9 °F - 43.0 °F 42% 29.95 in 5.0 mi West 12.7 mph - N/A   Haze
4:53 PM 66.9 °F - 44.1 °F 44% 29.96 in 10.0 mi West 9.2 mph - N/A   Mostly Cloudy
5:53 PM 63.0 °F - 44.1 °F 50% 29.96 in 10.0 mi West 5.8 mph - N/A   Mostly Cloudy
6:53 PM 57.9 °F - 44.1 °F 60% 29.97 in 10.0 mi West 3.5 mph - N/A   Clear
7:53 PM 55.0 °F - 44.1 °F 67% 29.99 in 9.0 mi WSW 4.6 mph - N/A   Clear
8:53 PM 51.1 °F - 44.1 °F 77% 30.00 in 10.0 mi Calm Calm - N/A   Clear
9:53 PM 51.1 °F - 44.1 °F 77% 30.01 in 10.0 mi Calm Calm - N/A   Mostly Cloudy
10:53 PM 48.0 °F - 43.0 °F 83% 30.02 in 10.0 mi Calm Calm - N/A   Clear
11:53 PM 50.0 °F - 45.0 °F 83% 30.04 in 9.0 mi SSW 3.5 mph - N/A   Overcast